{"data":{"norad_id":56479,"intl_designator":"2023-064AH","name":"STARLINK-6044","alt_names":[],"object_type":"PAYLOAD","status":"ACTIVE","operator":null,"country":"US","launch_date":"2023-05-10","launch_site_code":"AFWTR","launch_vehicle":null,"mission":null,"orbit_class":"UNKNOWN","rcs_meters":null,"size_class":null,"mass_kg":null,"dimensions":null,"purposes":["comms"],"wikipedia_slug":null,"has_3d_model":false,"image_url":null,"decayed_at":null,"tle_current":{"epoch":"2026-09-20T22:00:03.000096Z","epoch_age_seconds":76049,"freshness":"FRESH","line1":"1 56479U 23064AH  26263.91670139 -.00005233  00000+0 -35504-3 0  9995","line2":"2 56479  70.0004 351.9396 0002038 237.9261 329.5529 15.05652378  5724","mean_motion":15.05652378,"eccentricity":0.0002038,"inclination_deg":70.0004,"raan_deg":351.9396,"arg_perigee_deg":237.9261,"mean_anomaly_deg":329.5529,"bstar":-0.00035504,"rev_number":572,"period_min":95.639605863924,"perigee_km":548.09200656225,"apogee_km":550.91571297669,"semimajor_km":6927.6408597695,"source":"CELESTRAK","updated_at":"2026-09-21T09:00:33.447312Z"}}}